Regional Weather Roundup
Issued by NWS

Home | Current Version | Previous Version | Graphics & Text | Print | Product List | Glossary On
Versions: 1 2 3 4 5 6 7 8 9 10 11 12 13 14 15 16 17 18 19 20 21 22 23 24 25 26 27 28 29 30 31 32 33 34 35 36 37 38 39 40 41 42 43 44 45 46 47 48 49 50
000
ASUS43 KLSX 081710
RWRMO

WEATHER SUMMARY FOR MISSOURI
NATIONAL WEATHER SERVICE SPRINGFIELD MO
1100 AM CST MON FEB 08 2016

NOTE: "FAIR" INDICATES FEW OR NO CLOUDS BELOW 12,000 FEET WITH NO
       SIGNIFICANT WEATHER AND/OR OBSTRUCTIONS TO VISIBILITY.
       CURRENT SKY AND/OR WEATHER CONDITIONS ARE NOT AVAILABLE FOR
       CHILLICOTHE AND FARMINGTON.

MOZ001>031-035>038-043-044-053-054-081800-
...NORTHERN AND WESTERN MISSOURI...

CITY           SKY/WX    TMP DP  RH WIND       PRES   REMARKS
KANSAS CTY INT FLURRIES  29  22  75 NW18G36   30.06R WCI  16
KANSAS C DTWN  LGT SNOW  31  20  63 NW18G28   30.07R WCI  19
LEE`S SUMMIT   FLURRIES  30  18  60 NW22G28   30.06R WCI  17
ST JOSEPH      CLOUDY    30  18  60 N26G32    30.09R WCI  16
CHILLICOTHE      N/A     27  14  58 NW20G32   30.02R WCI  13
KIRKSVILLE     LGT SNOW  20  11  68 NW21G33   29.94R WCI   4

$$
MOZ066>068-077>081-088>096-101>105-081800-
...SOUTHWEST MISSOURI...

CITY           SKY/WX    TMP DP  RH WIND       PRES   REMARKS
SPRINGFIELD    CLOUDY    35  14  42 NW29G41   30.00R WCI  22
JOPLIN         MOSUNNY   38  24  57 NW18G29   30.11R WCI  28

$$
MOZ032>034-039>042-045>050-055>058-069>072-081800-
...CENTRAL MISSOURI...

CITY           SKY/WX    TMP DP  RH WIND       PRES   REMARKS
COLUMBIA       CLOUDY    28  17  63 NW29G36   29.94R WCI  12
JEFFERSON CITY CLOUDY    29  15  56 NW22G38   29.96R WCI  15
ROLLA          CLOUDY    27  17  66 NW17G30   29.91R WCI  14
SEDALIA        PTSUNNY   29  17  61 NW25G38   30.01R WCI  14
WHITEMAN AFB   FLURRIES  30  17  60 NW25G37   30.01R WCI  15
WARRENSBURG    CLOUDY    30  21  69 NW21G28   30.05R WCI  17
OSAGE BEACH    CLOUDY    30  18  59 W13G24    29.98R WCI  20

$$
MOZ051-052-059>065-081800-
...EAST CENTRAL MISSOURI...

CITY           SKY/WX    TMP DP  RH WIND       PRES   REMARKS
ST LOUIS INTL  FLURRIES  32  16  51 W22G31    29.88R WCI  19
SPIRIT OF STL  CLOUDY    29  15  56 NW18G30   29.90R WCI  16
ST CHARLES     FLURRIES  28  18  66 NW18      29.88R WCI  15

$$
MOZ072>076-082>087-097>100-106>115-081800-
...SOUTH CENTRAL AND SOUTHEAST MISSOURI...

CITY           SKY/WX    TMP DP  RH WIND       PRES   REMARKS
CAPE GIRARDEAU FLURRIES  33  26  75 NW14G24   29.88S WCI  23
FARMINGTON     MIX PCPN  29  16  58 NW20G32   29.88R WCI  16
POPLAR BLUFF   CLOUDY    38  20  48 NW23G31   29.90S WCI  27
WEST PLAINS    CLOUDY    37  16  42 NW18G39   29.92S WCI  27

$$



USA.gov is the U.S. government's official web portal to all federal, state and local government web resources and services.